Location: Prague
(50.0830°N, 14.4670°E)
Time: 21:34:09
(UTC+02:00)

ISS - Visible Passes

Search period start: 26 September 2021 00:00
Search period end: 06 October 2021 00:00
Orbit: 417 x 423 km, 51.6° (Epoch: 26 September)

Date Brightness Start Highest point End Pass type
(mag) Time Alt. Az. Time Alt. Az. Time Alt. Az.
26 Sep -3.5 19:27:31 10° W 19:30:52 68° N 19:34:14 10° ENE visible
26 Sep -3.3 21:04:28 10° WNW 21:07:19 60° WNW 21:07:19 60° WNW visible
27 Sep -3.7 20:17:12 10° WNW 20:20:34 71° N 20:21:49 35° E visible
27 Sep -0.7 21:54:06 10° W 21:54:47 15° W 21:54:47 15° W visible
28 Sep -3.5 19:29:57 10° W 19:33:19 66° N 19:36:22 12° E visible
28 Sep -2.7 21:06:51 10° WNW 21:09:20 43° W 21:09:20 43° W visible
29 Sep -3.8 20:19:39 10° WNW 20:23:02 80° SSW 20:23:58 45° ESE visible
29 Sep -0.4 21:56:53 10° W 21:56:57 10° W 21:56:57 10° W visible
30 Sep -3.8 19:32:32 10° WNW 19:35:56 83° NNE 19:38:41 15° ESE visible
30 Sep -1.9 21:09:32 10° W 21:11:40 26° WSW 21:11:40 26° WSW visible
01 Oct -2.9 20:22:23 10° W 20:25:36 43° SSW 20:26:28 34° SSE visible
02 Oct -3.4 19:35:18 10° WNW 19:38:38 59° SSW 19:41:23 14° SE visible
02 Oct -1.0 21:13:03 10° WSW 21:14:23 14° SW 21:14:23 14° SW visible
03 Oct -1.7 20:25:35 10° W 20:28:11 21° SW 20:29:26 17° S visible
04 Oct -2.1 19:38:25 10° W 19:41:24 29° SSW 19:44:23 10° SSE visible
